QPF
0.00 0.00 0.00 0.00 0.00 0.02 0.03 0.03 0.03 0.01 0.00 0.00 0.00 0.00 0.00 0.01 0.03 0.06 0.04 0.03 0.01 0.00 0.01 0.00 0.00 0.00 0.00 0.00 0.01 0.01 0.01 0.03 0.03 0.02 0.02 0.02 0.03 0.03 0.04 0.04 0.06 0.08 0.08 0.08 0.09 0.11 0.16 0.20 0.18
0.00 0.00 0.00 0.00 0.02 0.03 0.02 0.02 0.01 0.00 0.00 0.00 0.00 0.00 0.00 0.00 0.01 0.02 0.02 0.01 0.01 0.01 0.01 0.01 0.00 0.01 0.01 0.00 0.01 0.01 0.01 0.02 0.02 0.02 0.02 0.02 0.03 0.03 0.04 0.04 0.04 0.05 0.05 0.05 0.05 0.05 0.08 0.16 0.16
0.00 0.00 0.00 0.00 0.02 0.02 0.03 0.02 0.01 0.00 0.00 0.00 0.00 0.00 0.00 0.01 0.01 0.01 0.02 0.00 0.01 0.02 0.01 0.00 0.00 0.00 0.00 0.00 0.01 0.01 0.01 0.01 0.01 0.03 0.02 0.02 0.02 0.02 0.03 0.03 0.03 0.04 0.04 0.05 0.05 0.04 0.06 0.08 0.09
0.00 0.00 0.00 0.01 0.01 0.01 0.01 0.01 0.00 0.00 0.00 0.00 0.00 0.00 0.00 0.00 0.01 0.01 0.01 0.00 0.00 0.00 0.00 0.00 0.00 0.01 0.01 0.01 0.01 0.01 0.01 0.01 0.01 0.02 0.02 0.01 0.02 0.02 0.02 0.03 0.03 0.03 0.04 0.06 0.12 0.09 0.07 0.07 0.07
0.00 0.01 0.00 0.01 0.01 0.01 0.00 0.00 0.00 0.00 0.00 0.00 0.00 0.00 0.00 0.00 0.00 0.00 0.00 0.00 0.00 0.00 0.00 0.00 0.00 0.00 0.01 0.02 0.01 0.01 0.01 0.00 0.01 0.02 0.02 0.02 0.02 0.03 0.02 0.02 0.03 0.03 0.03 0.04 0.10 0.17 0.12 0.08 0.06
0.00 0.01 0.01 0.01 0.01 0.01 0.00 0.00 0.00 0.00 0.00 0.00 0.00 0.00 0.01 0.00 0.00 0.00 0.00 0.00 0.00 0.00 0.00 0.00 0.00 0.00 0.01 0.01 0.01 0.01 0.01 0.01 0.01 0.03 0.02 0.02 0.02 0.04 0.04 0.03 0.03 0.03 0.03 0.03 0.05 0.12 0.16 0.11 0.07
0.00 0.00 0.01 0.01 0.00 0.00 0.00 0.00 0.00 0.00 0.00 0.00 0.00 0.01 0.01 0.01 0.00 0.00 0.00 0.00 0.00 0.00 0.00 0.01 0.01 0.00 0.00 0.01 0.01 0.02 0.01 0.01 0.01 0.02 0.02 0.02 0.03 0.02 0.05 0.10 0.10 0.06 0.04 0.04 0.04 0.06 0.11 0.10 0.08
0.00 0.00 0.01 0.00 0.00 0.00 0.00 0.00 0.00 0.00 0.00 0.00 0.00 0.00 0.00 0.00 0.00 0.00 0.00 0.00 0.00 0.00 0.01 0.01 0.02 0.01 0.01 0.01 0.01 0.01 0.01 0.01 0.01 0.02 0.02 0.03 0.05 0.04 0.12 0.14 0.09 0.08 0.04 0.04 0.04 0.05 0.08 0.10 0.09
0.00 0.00 0.00 0.00 0.00 0.00 0.00 0.01 0.01 0.00 0.00 0.00 0.00 0.00 0.00 0.00 0.00 0.00 0.00 0.00 0.00 0.00 0.01 0.01 0.02 0.01 0.01 0.01 0.00 0.01 0.02 0.02 0.02 0.04 0.04 0.06 0.09 0.10 0.15 0.12 0.06 0.06 0.04 0.03 0.04 0.03 0.05 0.06 0.08
0.00 0.00 0.01 0.00 0.00 0.00 0.00 0.00 0.00 0.00 0.00 0.00 0.00 0.00 0.00 0.00 0.00 0.00 0.01 0.01 0.01 0.01 0.02 0.02 0.01 0.01 0.02 0.01 0.02 0.01 0.02 0.05 0.05 0.06 0.06 0.09 0.11 0.11 0.08 0.09 0.06 0.04 0.03 0.04 0.04 0.05 0.04 0.05 0.05
0.00 0.00 0.00 0.00 0.00 0.00 0.00 0.00 0.00 0.00 0.01 0.00 0.02 0.01 0.00 0.00 0.00 0.00 0.01 0.01 0.01 0.02 0.03 0.06 0.05 0.02 0.01 0.02 0.03 0.02 0.04 0.06 0.07 0.08 0.08 0.12 0.10 0.10 0.10 0.08 0.07 0.07 0.06 0.07 0.07 0.07 0.05 0.06 0.07
0.00 0.00 0.00 0.00 0.00 0.00 0.00 0.00 0.00 0.00 0.00 0.01 0.04 0.02 0.00 0.00 0.00 0.01 0.01 0.00 0.00 0.01 0.01 0.03 0.07 0.03 0.02 0.02 0.02 0.03 0.04 0.05 0.06 0.08 0.09 0.11 0.15 0.13 0.15 0.10 0.09 0.09 0.10 0.10 0.09 0.09 0.07 0.08 0.12
0.00 0.00 0.00 0.00 0.00 0.00 0.00 0.00 0.00 0.00 0.00 0.01 0.04 0.03 0.00 0.01 0.01 0.03 0.02 0.00 0.00 0.00 0.00 0.01 0.01 0.01 0.02 0.02 0.03 0.03 0.04 0.05 0.06 0.06 0.07 0.10 0.20 0.12 0.09 0.08 0.07 0.06 0.08 0.09 0.09 0.08 0.07 0.08 0.08
0.00 0.00 0.00 0.00 0.00 0.00 0.00 0.00 0.00 0.01 0.01 0.01 0.02 0.02 0.01 0.01 0.01 0.01 0.01 0.00 0.00 0.00 0.01 0.00 0.01 0.02 0.03 0.03 0.03 0.03 0.04 0.05 0.05 0.05 0.04 0.05 0.11 0.09 0.07 0.05 0.05 0.05 0.06 0.06 0.07 0.07 0.06 0.08 0.07
0.00 0.00 0.00 0.00 0.00 0.00 0.00 0.01 0.02 0.02 0.02 0.02 0.02 0.04 0.05 0.04 0.02 0.01 0.01 0.00 0.00 0.00 0.00 0.01 0.01 0.02 0.03 0.04 0.04 0.04 0.04 0.03 0.04 0.05 0.04 0.03 0.05 0.07 0.06 0.04 0.05 0.05 0.04 0.05 0.06 0.05 0.07 0.07 0.08
0.00 0.00 0.00 0.00 0.00 0.00 0.02 0.04 0.04 0.02 0.02 0.02 0.03 0.04 0.06 0.06 0.03 0.02 0.01 0.01 0.00 0.00 0.00 0.01 0.01 0.02 0.02 0.03 0.04 0.04 0.04 0.04 0.06 0.05 0.03 0.03 0.03 0.04 0.04 0.04 0.04 0.05 0.05 0.05 0.05 0.05 0.06 0.08 0.09
0.00 0.00 0.00 0.00 0.00 0.00 0.01 0.02 0.01 0.01 0.02 0.04 0.04 0.05 0.05 0.04 0.02 0.01 0.01 0.01 0.00 0.00 0.00 0.00 0.01 0.01 0.02 0.02 0.03 0.03 0.04 0.05 0.06 0.04 0.04 0.04 0.03 0.02 0.04 0.05 0.05 0.04 0.05 0.05 0.05 0.05 0.07 0.09 0.09
0.00 0.00 0.00 0.00 0.00 0.00 0.01 0.01 0.01 0.01 0.02 0.03 0.04 0.06 0.08 0.06 0.03 0.02 0.01 0.01 0.00 0.00 0.00 0.00 0.00 0.01 0.01 0.02 0.03 0.03 0.03 0.05 0.06 0.04 0.05 0.04 0.03 0.03 0.04 0.04 0.04 0.04 0.05 0.06 0.05 0.05 0.05 0.05 0.06
0.00 0.00 0.00 0.00 0.00 0.00 0.00 0.00 0.00 0.00 0.00 0.01 0.02 0.05 0.09 0.08 0.05 0.04 0.03 0.01 0.00 0.00 0.00 0.00 0.00 0.00 0.00 0.01 0.02 0.03 0.03 0.05 0.05 0.04 0.03 0.03 0.03 0.03 0.05 0.04 0.04 0.05 0.05 0.06 0.06 0.06 0.04 0.04 0.05
0.00 0.00 0.00 0.00 0.00 0.00 0.00 0.00 0.00 0.00 0.00 0.00 0.01 0.02 0.03 0.04 0.03 0.04 0.03 0.02 0.01 0.01 0.00 0.00 0.00 0.00 0.00 0.01 0.01 0.02 0.03 0.04 0.03 0.03 0.04 0.04 0.04 0.04 0.03 0.04 0.05 0.06 0.06 0.06 0.07 0.08 0.07 0.05 0.05
0.00 0.00 0.00 0.00 0.00 0.00 0.01 0.01 0.01 0.00 0.00 0.00 0.00 0.01 0.03 0.03 0.02 0.01 0.01 0.01 0.01 0.01 0.00 0.01 0.00 0.00 0.00 0.00 0.01 0.02 0.02 0.02 0.02 0.03 0.04 0.04 0.04 0.04 0.04 0.05 0.06 0.07 0.06 0.05 0.06 0.07 0.08 0.08 0.06
0.00 0.00 0.00 0.00 0.00 0.00 0.00 0.01 0.01 0.01 0.01 0.00 0.00 0.01 0.02 0.01 0.01 0.01 0.01 0.01 0.01 0.01 0.00 0.01 0.00 0.00 0.01 0.01 0.02 0.02 0.02 0.03 0.02 0.02 0.03 0.04 0.03 0.02 0.03 0.04 0.06 0.07 0.07 0.07 0.05 0.05 0.06 0.08 0.08
0.00 0.00 0.00 0.00 0.00 0.00 0.00 0.01 0.00 0.00 0.01 0.00 0.00 0.00 0.01 0.01 0.01 0.01 0.01 0.01 0.01 0.01 0.01 0.01 0.01 0.01 0.01 0.02 0.01 0.02 0.02 0.01 0.01 0.02 0.04 0.05 0.04 0.03 0.02 0.04 0.06 0.06 0.07 0.06 0.05 0.06 0.07 0.08 0.09
0.00 0.00 0.00 0.00 0.00 0.01 0.00 0.00 0.00 0.00 0.00 0.00 0.00 0.00 0.00 0.02 0.01 0.01 0.01 0.00 0.00 0.00 0.01 0.01 0.01 0.01 0.01 0.01 0.02 0.02 0.01 0.01 0.01 0.02 0.04 0.04 0.04 0.03 0.03 0.03 0.05 0.05 0.04 0.04 0.05 0.07 0.08 0.07 0.07
0.00 0.00 0.01 0.01 0.01 0.01 0.01 0.00 0.00 0.00 0.00 0.00 0.00 0.00 0.00 0.00 0.01 0.01 0.01 0.01 0.00 0.00 0.00 0.01 0.01 0.01 0.01 0.01 0.02 0.02 0.02 0.02 0.02 0.03 0.04 0.04 0.03 0.02 0.03 0.04 0.05 0.05 0.06 0.05 0.06 0.06 0.06 0.07 0.06
0.00 0.01 0.02 0.01 0.01 0.01 0.00 0.00 0.00 0.00 0.00 0.00 0.00 0.01 0.01 0.00 0.00 0.01 0.01 0.01 0.01 0.01 0.01 0.01 0.01 0.01 0.01 0.01 0.02 0.03 0.03 0.03 0.03 0.04 0.02 0.02 0.02 0.02 0.03 0.03 0.03 0.04 0.04 0.04 0.05 0.04 0.04 0.05 0.05
0.00 0.00 0.00 0.00 0.00 0.01 0.01 0.00 0.00 0.00 0.00 0.00 0.00 0.00 0.01 0.01 0.00 0.01 0.01 0.01 0.01 0.01 0.01 0.01 0.01 0.02 0.01 0.01 0.02 0.03 0.03 0.03 0.03 0.04 0.03 0.02 0.02 0.02 0.02 0.02 0.03 0.03 0.04 0.04 0.05 0.05 0.05 0.06 0.05
0.00 0.00 0.00 0.00 0.01 0.01 0.01 0.01 0.01 0.00 0.00 0.00 0.00 0.00 0.00 0.00 0.01 0.01 0.01 0.01 0.02 0.02 0.02 0.02 0.02 0.03 0.03 0.03 0.03 0.03 0.04 0.04 0.03 0.03 0.02 0.02 0.02 0.03 0.03 0.03 0.03 0.03 0.05 0.06 0.05 0.05 0.05 0.06 0.05
0.00 0.00 0.00 0.00 0.01 0.01 0.01 0.01 0.02 0.01 0.00 0.00 0.00 0.00 0.00 0.00 0.01 0.01 0.02 0.02 0.02 0.02 0.02 0.02 0.02 0.02 0.02 0.02 0.03 0.05 0.05 0.04 0.04 0.03 0.02 0.02 0.02 0.04 0.03 0.03 0.03 0.04 0.05 0.06 0.06 0.06 0.07 0.06 0.07
0.00 0.00 0.00 0.01 0.01 0.01 0.02 0.02 0.01 0.01 0.00 0.00 0.00 0.00 0.00 0.00 0.00 0.01 0.01 0.02 0.02 0.02 0.02 0.02 0.02 0.03 0.03 0.04 0.05 0.05 0.05 0.05 0.04 0.02 0.02 0.03 0.03 0.02 0.03 0.03 0.03 0.03 0.04 0.05 0.06 0.06 0.08 0.08 0.07
MSLP
1007.02 1007.77 1008.58 1009.30 1009.80 1010.00 1009.89 1009.51 1008.99 1008.47 1008.10 1008.00 1008.19 1008.65 1009.28 1009.97 1010.58 1011.02 1011.25 1011.30 1011.23 1011.14 1011.12 1011.24 1011.52 1011.92 1012.38 1012.84 1013.24 1013.53 1013.73 1013.86 1013.97 1014.11 1014.30 1014.55 1014.82 1015.09 1015.31 1015.46 1015.55 1015.59 1015.63 1015.70 1015.82 1015.99 1016.18 1016.37 1016.51
1007.16 1008.06 1008.97 1009.73 1010.20 1010.30 1010.04 1009.48 1008.76 1008.07 1007.55 1007.33 1007.45 1007.88 1008.52 1009.25 1009.93 1010.45 1010.78 1010.94 1010.98 1011.01 1011.10 1011.31 1011.66 1012.11 1012.61 1013.09 1013.49 1013.79 1014.01 1014.17 1014.31 1014.49 1014.71 1014.97 1015.23 1015.47 1015.64 1015.73 1015.76 1015.75 1015.76 1015.81 1015.92 1016.09 1016.29 1016.47 1016.60
1007.32 1008.31 1009.27 1010.03 1010.45 1010.47 1010.09 1009.40 1008.56 1007.74 1007.13 1006.84 1006.90 1007.30 1007.93 1008.65 1009.34 1009.90 1010.28 1010.51 1010.65 1010.77 1010.96 1011.26 1011.68 1012.19 1012.73 1013.23 1013.65 1013.98 1014.22 1014.41 1014.59 1014.80 1015.04 1015.30 1015.55 1015.76 1015.89 1015.94 1015.93 1015.89 1015.88 1015.92 1016.03 1016.20 1016.39 1016.57 1016.68
1007.45 1008.47 1009.43 1010.15 1010.53 1010.48 1010.03 1009.29 1008.40 1007.55 1006.92 1006.60 1006.63 1006.99 1007.57 1008.25 1008.90 1009.43 1009.81 1010.07 1010.25 1010.45 1010.72 1011.10 1011.60 1012.16 1012.74 1013.28 1013.73 1014.08 1014.35 1014.57 1014.78 1015.02 1015.28 1015.56 1015.81 1016.00 1016.11 1016.14 1016.11 1016.06 1016.04 1016.09 1016.20 1016.36 1016.55 1016.70 1016.79
1007.54 1008.52 1009.42 1010.08 1010.40 1010.32 1009.88 1009.16 1008.32 1007.53 1006.94 1006.64 1006.67 1006.99 1007.49 1008.08 1008.63 1009.09 1009.42 1009.66 1009.86 1010.10 1010.43 1010.89 1011.45 1012.08 1012.70 1013.27 1013.75 1014.12 1014.41 1014.66 1014.90 1015.17 1015.46 1015.75 1016.01 1016.21 1016.32 1016.35 1016.33 1016.29 1016.28 1016.32 1016.43 1016.59 1016.76 1016.88 1016.94
1007.56 1008.43 1009.23 1009.81 1010.09 1010.02 1009.63 1009.02 1008.31 1007.66 1007.19 1006.96 1007.01 1007.28 1007.69 1008.15 1008.57 1008.90 1009.14 1009.33 1009.53 1009.79 1010.18 1010.69 1011.31 1011.99 1012.65 1013.24 1013.73 1014.12 1014.43 1014.70 1014.97 1015.26 1015.58 1015.90 1016.19 1016.41 1016.55 1016.60 1016.59 1016.56 1016.56 1016.60 1016.71 1016.85 1016.99 1017.09 1017.12
1007.49 1008.21 1008.88 1009.38 1009.63 1009.61 1009.34 1008.90 1008.40 1007.94 1007.63 1007.51 1007.58 1007.81 1008.11 1008.43 1008.70 1008.89 1009.02 1009.14 1009.31 1009.59 1010.01 1010.57 1011.23 1011.94 1012.61 1013.21 1013.70 1014.09 1014.41 1014.69 1014.98 1015.31 1015.66 1016.02 1016.35 1016.61 1016.77 1016.85 1016.85 1016.83 1016.83 1016.87 1016.95 1017.07 1017.18 1017.26 1017.28
1007.34 1007.90 1008.43 1008.85 1009.10 1009.16 1009.05 1008.82 1008.56 1008.33 1008.20 1008.20 1008.31 1008.49 1008.69 1008.86 1008.97 1009.02 1009.05 1009.10 1009.25 1009.53 1009.98 1010.56 1011.24 1011.95 1012.62 1013.20 1013.68 1014.05 1014.36 1014.65 1014.96 1015.32 1015.71 1016.11 1016.48 1016.77 1016.97 1017.06 1017.07 1017.05 1017.03 1017.04 1017.10 1017.19 1017.29 1017.35 1017.37
1007.15 1007.56 1007.97 1008.33 1008.60 1008.76 1008.83 1008.83 1008.81 1008.82 1008.87 1008.97 1009.11 1009.25 1009.36 1009.40 1009.38 1009.31 1009.25 1009.25 1009.37 1009.66 1010.11 1010.70 1011.37 1012.05 1012.68 1013.22 1013.64 1013.98 1014.27 1014.56 1014.89 1015.28 1015.71 1016.14 1016.55 1016.87 1017.08 1017.18 1017.19 1017.15 1017.10 1017.09 1017.12 1017.18 1017.26 1017.34 1017.38
1006.98 1007.26 1007.58 1007.91 1008.22 1008.50 1008.74 1008.96 1009.17 1009.38 1009.58 1009.78 1009.94 1010.05 1010.07 1010.01 1009.89 1009.73 1009.62 1009.59 1009.70 1009.98 1010.42 1010.98 1011.61 1012.22 1012.77 1013.23 1013.58 1013.87 1014.12 1014.40 1014.74 1015.15 1015.61 1016.08 1016.51 1016.85 1017.07 1017.17 1017.16 1017.10 1017.03 1016.98 1016.98 1017.04 1017.13 1017.22 1017.30
1006.89 1007.09 1007.35 1007.67 1008.04 1008.43 1008.84 1009.25 1009.64 1010.02 1010.34 1010.60 1010.77 1010.84 1010.80 1010.67 1010.49 1010.29 1010.15 1010.11 1010.22 1010.49 1010.89 1011.39 1011.93 1012.44 1012.87 1013.22 1013.48 1013.69 1013.89 1014.15 1014.49 1014.91 1015.39 1015.88 1016.33 1016.68 1016.91 1017.00 1016.98 1016.90 1016.81 1016.75 1016.74 1016.80 1016.91 1017.05 1017.19
1006.92 1007.09 1007.34 1007.68 1008.11 1008.60 1009.15 1009.70 1010.24 1010.72 1011.12 1011.42 1011.58 1011.62 1011.55 1011.38 1011.17 1010.97 1010.83 1010.80 1010.91 1011.14 1011.49 1011.90 1012.31 1012.68 1012.97 1013.17 1013.31 1013.43 1013.57 1013.79 1014.11 1014.53 1015.02 1015.52 1015.98 1016.34 1016.57 1016.66 1016.65 1016.57 1016.49 1016.44 1016.45 1016.54 1016.70 1016.89 1017.10
1007.12 1007.28 1007.54 1007.92 1008.42 1009.01 1009.65 1010.31 1010.94 1011.50 1011.93 1012.23 1012.39 1012.41 1012.32 1012.15 1011.94 1011.76 1011.64 1011.62 1011.71 1011.90 1012.16 1012.45 1012.72 1012.92 1013.05 1013.10 1013.10 1013.11 1013.18 1013.34 1013.63 1014.02 1014.50 1014.99 1015.45 1015.82 1016.06 1016.18 1016.19 1016.15 1016.11 1016.10 1016.17 1016.32 1016.54 1016.80 1017.07
1007.47 1007.65 1007.94 1008.37 1008.93 1009.59 1010.31 1011.04 1011.72 1012.30 1012.75 1013.05 1013.19 1013.20 1013.11 1012.95 1012.77 1012.62 1012.53 1012.51 1012.58 1012.71 1012.87 1013.03 1013.13 1013.16 1013.12 1013.01 1012.88 1012.78 1012.75 1012.84 1013.07 1013.42 1013.85 1014.32 1014.77 1015.14 1015.41 1015.57 1015.64 1015.68 1015.71 1015.79 1015.94 1016.17 1016.47 1016.80 1017.13
1007.93 1008.14 1008.47 1008.94 1009.55 1010.26 1011.03 1011.80 1012.50 1013.10 1013.54 1013.83 1013.97 1013.98 1013.90 1013.76 1013.62 1013.50 1013.43 1013.42 1013.45 1013.51 1013.57 1013.58 1013.54 1013.41 1013.21 1012.97 1012.71 1012.50 1012.37 1012.37 1012.52 1012.79 1013.15 1013.57 1013.99 1014.36 1014.66 1014.87 1015.03 1015.16 1015.31 1015.50 1015.76 1016.09 1016.47 1016.87 1017.26
1008.44 1008.67 1009.03 1009.53 1010.18 1010.92 1011.73 1012.52 1013.23 1013.83 1014.27 1014.56 1014.70 1014.72 1014.66 1014.55 1014.44 1014.35 1014.29 1014.26 1014.25 1014.24 1014.19 1014.10 1013.93 1013.68 1013.36 1013.00 1012.65 1012.34 1012.11 1012.01 1012.05 1012.21 1012.48 1012.82 1013.18 1013.53 1013.85 1014.12 1014.38 1014.62 1014.90 1015.21 1015.59 1016.02 1016.49 1016.95 1017.38
1008.93 1009.18 1009.55 1010.07 1010.74 1011.50 1012.32 1013.12 1013.85 1014.45 1014.89 1015.18 1015.33 1015.37 1015.33 1015.26 1015.17 1015.09 1015.03 1014.98 1014.92 1014.85 1014.73 1014.55 1014.30 1013.98 1013.59 1013.17 1012.74 1012.35 1012.04 1011.83 1011.74 1011.77 1011.90 1012.13 1012.40 1012.71 1013.03 1013.35 1013.69 1014.04 1014.43 1014.88 1015.36 1015.89 1016.43 1016.94 1017.41
1009.36 1009.60 1009.97 1010.50 1011.18 1011.95 1012.78 1013.58 1014.31 1014.91 1015.37 1015.67 1015.83 1015.89 1015.88 1015.82 1015.75 1015.68 1015.60 1015.53 1015.44 1015.32 1015.16 1014.94 1014.66 1014.31 1013.91 1013.47 1013.01 1012.58 1012.18 1011.86 1011.63 1011.51 1011.49 1011.57 1011.73 1011.96 1012.25 1012.59 1012.98 1013.42 1013.90 1014.44 1015.01 1015.61 1016.21 1016.77 1017.26
1009.70 1009.92 1010.30 1010.82 1011.49 1012.27 1013.09 1013.89 1014.62 1015.22 1015.68 1015.99 1016.17 1016.25 1016.26 1016.22 1016.15 1016.08 1015.99 1015.89 1015.78 1015.64 1015.47 1015.25 1014.98 1014.66 1014.30 1013.89 1013.44 1012.98 1012.53 1012.11 1011.75 1011.46 1011.27 1011.18 1011.20 1011.33 1011.55 1011.86 1012.27 1012.74 1013.28 1013.87 1014.50 1015.14 1015.77 1016.36 1016.88
1009.96 1010.18 1010.54 1011.07 1011.73 1012.49 1013.30 1014.09 1014.80 1015.39 1015.84 1016.15 1016.35 1016.44 1016.46 1016.43 1016.37 1016.29 1016.20 1016.09 1015.96 1015.82 1015.66 1015.48 1015.27 1015.01 1014.72 1014.37 1013.96 1013.51 1013.03 1012.53 1012.04 1011.60 1011.24 1010.98 1010.84 1010.83 1010.95 1011.21 1011.58 1012.04 1012.58 1013.18 1013.82 1014.46 1015.10 1015.71 1016.26
1010.20 1010.42 1010.79 1011.30 1011.96 1012.70 1013.47 1014.22 1014.90 1015.46 1015.89 1016.19 1016.38 1016.48 1016.51 1016.49 1016.43 1016.35 1016.25 1016.14 1016.02 1015.90 1015.77 1015.63 1015.49 1015.32 1015.11 1014.84 1014.50 1014.08 1013.58 1013.03 1012.45 1011.88 1011.36 1010.94 1010.64 1010.49 1010.49 1010.64 1010.94 1011.34 1011.84 1012.40 1013.00 1013.62 1014.25 1014.86 1015.42
1010.48 1010.72 1011.09 1011.61 1012.25 1012.96 1013.69 1014.38 1015.00 1015.50 1015.89 1016.16 1016.33 1016.42 1016.45 1016.44 1016.39 1016.32 1016.23 1016.12 1016.01 1015.90 1015.80 1015.71 1015.63 1015.53 1015.40 1015.21 1014.94 1014.57 1014.09 1013.52 1012.88 1012.22 1011.58 1011.03 1010.59 1010.29 1010.16 1010.19 1010.38 1010.69 1011.09 1011.58 1012.12 1012.69 1013.28 1013.87 1014.46
1010.85 1011.12 1011.52 1012.04 1012.66 1013.32 1013.99 1014.61 1015.14 1015.57 1015.89 1016.10 1016.24 1016.32 1016.35 1016.35 1016.32 1016.26 1016.18 1016.09 1015.98 1015.88 1015.79 1015.72 1015.67 1015.63 1015.56 1015.43 1015.22 1014.90 1014.46 1013.90 1013.25 1012.54 1011.84 1011.18 1010.63 1010.21 1009.95 1009.86 1009.91 1010.10 1010.40 1010.79 1011.24 1011.74 1012.28 1012.86 1013.44
1011.34 1011.65 1012.08 1012.60 1013.20 1013.82 1014.41 1014.94 1015.37 1015.70 1015.93 1016.09 1016.18 1016.24 1016.27 1016.28 1016.27 1016.24 1016.18 1016.08 1015.98 1015.86 1015.76 1015.68 1015.63 1015.59 1015.54 1015.46 1015.30 1015.04 1014.65 1014.13 1013.50 1012.80 1012.07 1011.37 1010.74 1010.22 1009.84 1009.62 1009.55 1009.61 1009.78 1010.06 1010.41 1010.84 1011.33 1011.87 1012.45
1011.94 1012.29 1012.75 1013.28 1013.85 1014.41 1014.92 1015.35 1015.68 1015.90 1016.05 1016.14 1016.19 1016.22 1016.26 1016.29 1016.30 1016.28 1016.23 1016.14 1016.02 1015.87 1015.73 1015.60 1015.50 1015.44 1015.38 1015.30 1015.18 1014.96 1014.64 1014.19 1013.62 1012.96 1012.24 1011.52 1010.85 1010.26 1009.78 1009.44 1009.24 1009.18 1009.23 1009.39 1009.66 1010.01 1010.45 1010.96 1011.53
1012.61 1012.99 1013.46 1013.99 1014.53 1015.03 1015.47 1015.80 1016.03 1016.16 1016.23 1016.25 1016.26 1016.28 1016.32 1016.37 1016.40 1016.41 1016.37 1016.26 1016.11 1015.91 1015.70 1015.50 1015.32 1015.19 1015.09 1015.00 1014.89 1014.73 1014.47 1014.09 1013.60 1013.01 1012.33 1011.63 1010.93 1010.28 1009.72 1009.28 1008.96 1008.77 1008.71 1008.78 1008.96 1009.24 1009.63 1010.12 1010.67
1013.28 1013.68 1014.15 1014.66 1015.17 1015.62 1015.98 1016.24 1016.39 1016.44 1016.44 1016.42 1016.40 1016.41 1016.46 1016.52 1016.58 1016.60 1016.56 1016.44 1016.24 1015.98 1015.68 1015.39 1015.12 1014.91 1014.75 1014.63 1014.52 1014.39 1014.19 1013.89 1013.48 1012.95 1012.33 1011.65 1010.94 1010.24 1009.61 1009.07 1008.64 1008.34 1008.18 1008.16 1008.27 1008.50 1008.86 1009.31 1009.86
1013.88 1014.27 1014.73 1015.21 1015.67 1016.08 1016.39 1016.59 1016.68 1016.69 1016.65 1016.60 1016.58 1016.60 1016.65 1016.73 1016.80 1016.83 1016.78 1016.63 1016.39 1016.06 1015.68 1015.29 1014.93 1014.63 1014.41 1014.25 1014.13 1014.02 1013.86 1013.63 1013.28 1012.82 1012.24 1011.57 1010.84 1010.10 1009.39 1008.76 1008.24 1007.84 1007.60 1007.50 1007.55 1007.74 1008.07 1008.51 1009.04
1014.36 1014.71 1015.12 1015.56 1015.99 1016.36 1016.63 1016.81 1016.88 1016.88 1016.84 1016.79 1016.78 1016.80 1016.87 1016.97 1017.05 1017.07 1017.01 1016.83 1016.54 1016.15 1015.70 1015.23 1014.79 1014.41 1014.12 1013.92 1013.78 1013.67 1013.53 1013.33 1013.02 1012.59 1012.03 1011.35 1010.59 1009.80 1009.03 1008.32 1007.71 1007.23 1006.92 1006.76 1006.77 1006.94 1007.24 1007.67 1008.19
1014.68 1014.98 1015.33 1015.72 1016.11 1016.45 1016.72 1016.89 1016.98 1017.00 1016.98 1016.96 1016.97 1017.02 1017.11 1017.21 1017.29 1017.30 1017.22 1017.02 1016.69 1016.26 1015.75 1015.22 1014.71 1014.27 1013.93 1013.68 1013.50 1013.37 1013.22 1013.01 1012.70 1012.26 1011.68 1010.98 1010.18 1009.34 1008.50 1007.72 1007.05 1006.52 1006.15 1005.96 1005.94 1006.09 1006.38 1006.80 1007.31
Thickness
5840 5843 5844 5840 5824 5814 5812 5827 5838 5837 5837 5846 5847 5841 5827 5817 5807 5792 5822 5832 5826 5816 5807 5801 5797 5793 5790 5788 5786 5784 5782 5780 5779 5778 5777 5776 5776 5775 5775 5774 5774 5773 5772 5772 5772 5772 5771 5771 5769
5845 5849 5844 5833 5811 5797 5809 5830 5831 5835 5843 5850 5847 5841 5829 5822 5828 5823 5826 5829 5826 5817 5808 5802 5796 5793 5790 5787 5785 5782 5780 5779 5778 5776 5776 5775 5774 5773 5773 5772 5772 5771 5770 5770 5771 5771 5771 5770 5767
5844 5850 5835 5826 5815 5807 5812 5831 5836 5844 5852 5848 5841 5839 5829 5822 5828 5826 5828 5829 5824 5816 5808 5800 5795 5792 5789 5786 5784 5782 5780 5778 5776 5775 5774 5773 5772 5772 5771 5770 5770 5769 5769 5769 5769 5770 5771 5770 5767
5843 5844 5836 5824 5817 5829 5833 5839 5845 5843 5846 5849 5841 5829 5830 5837 5834 5832 5832 5830 5822 5815 5808 5800 5795 5791 5788 5785 5783 5781 5779 5777 5775 5774 5772 5771 5771 5770 5769 5768 5768 5767 5767 5767 5767 5767 5767 5766 5765
5843 5830 5818 5814 5826 5840 5849 5853 5851 5843 5840 5843 5838 5821 5819 5835 5840 5836 5833 5829 5823 5816 5808 5800 5795 5791 5788 5785 5782 5780 5778 5776 5774 5773 5771 5770 5769 5768 5767 5767 5766 5766 5765 5765 5764 5764 5764 5763 5763
5830 5826 5803 5804 5824 5841 5850 5856 5852 5844 5842 5844 5838 5822 5817 5835 5835 5834 5834 5830 5825 5818 5809 5800 5795 5791 5788 5785 5782 5780 5777 5775 5773 5771 5770 5769 5768 5767 5766 5765 5765 5764 5763 5763 5762 5762 5761 5761 5761
5826 5817 5806 5817 5825 5834 5847 5857 5849 5843 5839 5843 5845 5822 5819 5829 5835 5836 5834 5831 5826 5819 5810 5801 5796 5791 5788 5785 5782 5779 5777 5775 5772 5771 5769 5768 5767 5766 5766 5764 5764 5763 5762 5761 5760 5760 5760 5760 5760
5842 5823 5811 5820 5825 5831 5850 5854 5852 5846 5841 5854 5851 5826 5817 5828 5837 5837 5833 5829 5824 5819 5812 5806 5800 5794 5789 5786 5782 5780 5777 5774 5772 5770 5769 5768 5767 5766 5765 5764 5763 5763 5761 5760 5759 5759 5758 5758 5759
5847 5818 5807 5819 5829 5836 5850 5846 5849 5857 5848 5848 5849 5842 5836 5839 5838 5831 5826 5822 5819 5816 5813 5808 5802 5797 5793 5789 5784 5780 5777 5775 5772 5770 5769 5768 5767 5766 5765 5763 5763 5762 5760 5758 5758 5758 5757 5757 5758
5837 5812 5817 5838 5846 5846 5848 5844 5845 5844 5836 5836 5837 5839 5840 5837 5832 5824 5819 5816 5813 5812 5812 5809 5804 5799 5795 5791 5786 5782 5779 5775 5773 5771 5769 5767 5767 5765 5764 5762 5761 5760 5758 5757 5757 5756 5756 5756 5757
5838 5826 5837 5847 5854 5851 5845 5844 5849 5837 5825 5832 5829 5830 5834 5832 5829 5824 5821 5818 5815 5814 5811 5809 5804 5800 5796 5791 5787 5784 5781 5777 5774 5771 5769 5767 5766 5765 5763 5761 5759 5758 5757 5756 5756 5755 5755 5756 5756
5837 5839 5844 5848 5853 5848 5844 5844 5842 5839 5836 5845 5842 5837 5833 5829 5826 5824 5821 5819 5817 5814 5810 5809 5805 5799 5795 5791 5788 5785 5782 5778 5775 5772 5769 5767 5765 5763 5762 5760 5759 5758 5757 5756 5755 5755 5755 5755 5755
5833 5837 5846 5851 5849 5847 5845 5839 5838 5837 5846 5848 5843 5836 5831 5829 5827 5825 5825 5822 5817 5812 5809 5807 5804 5798 5793 5790 5787 5784 5781 5778 5775 5771 5768 5766 5764 5762 5761 5759 5758 5757 5756 5755 5754 5754 5754 5753 5753
5836 5840 5842 5845 5844 5844 5835 5833 5833 5833 5844 5840 5835 5829 5832 5830 5828 5825 5822 5818 5815 5811 5808 5806 5802 5796 5792 5788 5785 5783 5780 5777 5774 5770 5767 5765 5762 5760 5759 5758 5756 5755 5755 5754 5753 5753 5752 5751 5751
5837 5829 5830 5837 5839 5839 5833 5818 5825 5838 5841 5834 5831 5830 5829 5828 5827 5824 5822 5818 5814 5810 5808 5804 5800 5795 5790 5786 5784 5782 5779 5776 5772 5769 5766 5763 5761 5759 5757 5755 5754 5754 5754 5753 5752 5751 5750 5750 5749
5823 5813 5806 5826 5835 5837 5822 5801 5827 5841 5837 5830 5830 5829 5827 5824 5825 5825 5823 5819 5815 5811 5806 5802 5800 5794 5789 5785 5782 5780 5777 5774 5771 5768 5765 5762 5760 5758 5756 5754 5753 5753 5752 5751 5750 5748 5747 5746 5745
5802 5797 5801 5818 5836 5834 5820 5807 5826 5839 5835 5828 5828 5828 5825 5823 5823 5823 5823 5818 5814 5810 5805 5800 5797 5792 5788 5784 5781 5778 5775 5772 5770 5767 5764 5761 5759 5757 5755 5753 5752 5751 5750 5749 5748 5746 5745 5742 5742
5791 5802 5806 5812 5829 5828 5816 5813 5824 5836 5833 5828 5827 5825 5823 5820 5820 5821 5820 5817 5813 5809 5804 5798 5794 5790 5787 5783 5779 5776 5774 5771 5769 5766 5763 5760 5758 5756 5754 5752 5751 5750 5748 5745 5744 5742 5743 5742 5741
5806 5806 5807 5819 5834 5823 5812 5811 5818 5829 5829 5826 5825 5823 5819 5818 5823 5822 5819 5815 5810 5805 5800 5796 5791 5788 5785 5780 5776 5772 5769 5768 5766 5764 5762 5759 5757 5755 5753 5751 5749 5748 5745 5743 5742 5740 5739 5739 5740
5801 5797 5803 5816 5831 5821 5808 5807 5818 5826 5826 5827 5825 5821 5819 5817 5818 5817 5815 5812 5807 5802 5798 5794 5790 5787 5783 5780 5776 5773 5770 5768 5766 5764 5761 5758 5756 5754 5752 5749 5747 5746 5743 5741 5739 5738 5736 5736 5737
5793 5793 5797 5803 5816 5819 5807 5795 5808 5823 5828 5829 5828 5826 5824 5818 5812 5812 5811 5810 5806 5801 5797 5794 5790 5786 5782 5780 5776 5772 5768 5766 5763 5760 5758 5757 5754 5752 5750 5748 5746 5744 5742 5739 5737 5736 5733 5731 5734
5782 5801 5801 5800 5794 5791 5797 5774 5796 5812 5814 5819 5820 5821 5820 5819 5814 5812 5811 5808 5805 5802 5799 5794 5789 5785 5781 5779 5774 5769 5763 5760 5759 5758 5756 5755 5753 5751 5749 5747 5745 5742 5740 5738 5736 5735 5734 5732 5729
5790 5805 5800 5796 5790 5784 5791 5778 5790 5809 5802 5810 5816 5819 5820 5819 5816 5812 5811 5808 5806 5804 5799 5793 5788 5783 5780 5777 5773 5767 5763 5761 5759 5757 5754 5752 5751 5749 5747 5745 5743 5740 5738 5736 5735 5733 5732 5731 5729
5797 5793 5792 5792 5782 5760 5777 5776 5780 5801 5805 5810 5814 5816 5817 5816 5815 5811 5811 5809 5804 5803 5798 5792 5785 5781 5778 5774 5770 5766 5761 5758 5755 5752 5750 5749 5748 5747 5745 5743 5741 5739 5737 5735 5733 5731 5730 5729 5728
5785 5766 5749 5747 5746 5755 5784 5779 5783 5809 5817 5814 5812 5813 5813 5813 5809 5806 5804 5802 5800 5798 5795 5790 5783 5778 5775 5771 5767 5764 5760 5757 5753 5751 5749 5747 5745 5743 5741 5741 5739 5737 5736 5734 5732 5729 5727 5727 5725
5773 5767 5742 5733 5743 5760 5781 5774 5790 5813 5817 5819 5817 5814 5811 5808 5807 5803 5799 5799 5797 5794 5791 5786 5780 5775 5772 5768 5765 5762 5759 5756 5753 5750 5748 5745 5743 5742 5740 5739 5737 5735 5734 5733 5731 5728 5726 5725 5724
5766 5766 5776 5762 5761 5755 5769 5781 5794 5808 5805 5807 5807 5806 5804 5804 5802 5800 5796 5795 5792 5789 5786 5782 5777 5772 5769 5765 5762 5759 5756 5753 5750 5749 5747 5744 5742 5740 5739 5737 5735 5733 5732 5730 5728 5726 5724 5723 5722
5777 5775 5767 5756 5738 5739 5758 5767 5773 5785 5790 5795 5798 5798 5800 5799 5796 5794 5792 5790 5788 5785 5782 5778 5774 5769 5766 5763 5760 5757 5754 5751 5749 5746 5743 5741 5739 5737 5735 5733 5732 5730 5728 5728 5726 5723 5722 5720 5719
5761 5761 5760 5757 5756 5740 5738 5751 5786 5785 5789 5789 5791 5795 5796 5793 5790 5788 5786 5785 5782 5780 5776 5772 5767 5764 5761 5759 5757 5753 5750 5748 5746 5743 5740 5739 5736 5734 5732 5730 5728 5727 5726 5725 5723 5721 5719 5717 5715
5764 5758 5755 5738 5738 5745 5740 5746 5785 5787 5792 5791 5789 5790 5791 5789 5786 5783 5779 5776 5775 5772 5769 5766 5763 5760 5758 5756 5752 5749 5747 5744 5741 5738 5737 5735 5733 5731 5729 5727 5725 5724 5722 5721 5719 5716 5716 5713 5711